Time,TemperatureF,DewpointF,PressureIn,WindDirection,WindDirectionDegrees,WindSpeedMPH,WindSpeedGustMPH,Humidity,HourlyPrecipIn,Conditions,Clouds,dailyrainin,SolarRadiationWatts/m^2,SoftwareType,DateUTC
2013-09-03 00:02:00,60.2,58.5,29.96,North,351,1.1,0.0,94,0.00,SCT,,0.00,0.0,WeatherDisplay:10.37,2013-09-03 05:02:00,
2013-09-03 00:07:00,60.0,58.3,29.96,North,351,0.0,0.0,94,0.00,SCT,,0.00,0.0,WeatherDisplay:10.37,2013-09-03 05:07:00,
2013-09-03 00:12:00,59.7,57.7,29.96,North,351,0.0,0.0,93,0.00,SCT,,0.00,0.0,WeatherDisplay:10.37,2013-09-03 05:12:00,
2013-09-03 00:17:00,59.5,57.5,29.96,North,351,0.0,0.0,93,0.00,BKN,,0.00,0.0,WeatherDisplay:10.37,2013-09-03 05:17:00,
2013-09-03 00:22:00,59.0,57.0,29.96,North,351,0.0,0.0,93,0.00,BKN,,0.00,0.0,WeatherDisplay:10.37,2013-09-03 05:22:00,
2013-09-03 00:27:00,58.8,57.1,29.96,North,351,3.5,3.5,94,0.00,BKN,,0.00,0.0,WeatherDisplay:10.37,2013-09-03 05:27:00,
2013-09-03 00:32:00,58.7,57.0,29.96,North,351,3.5,3.5,94,0.00,BKN,,0.00,0.0,WeatherDisplay:10.37,2013-09-03 05:32:00,
2013-09-03 00:37:00,58.6,56.9,29.96,North,351,2.3,2.3,94,0.00,BKN,,0.00,0.0,WeatherDisplay:10.37,2013-09-03 05:37:00,
2013-09-03 00:42:00,58.6,56.9,29.96,North,351,2.3,2.3,94,0.00,BKN,,0.00,0.0,WeatherDisplay:10.37,2013-09-03 05:42:00,
2013-09-03 00:47:00,58.8,57.4,29.97,North,351,2.3,2.3,95,0.00,BKN,,0.00,0.0,WeatherDisplay:10.37,2013-09-03 05:47:00,
2013-09-03 00:52:00,58.7,57.0,29.97,North,351,0.0,0.0,94,0.00,BKN,,0.00,0.0,WeatherDisplay:10.37,2013-09-03 05:52:00,
2013-09-03 00:57:00,58.5,56.8,29.97,North,351,0.0,0.0,94,0.00,BKN,,0.00,0.0,WeatherDisplay:10.37,2013-09-03 05:57:00,
2013-09-03 01:02:00,58.3,56.6,29.97,North,351,0.0,0.0,94,0.00,CLR,,0.00,0.0,WeatherDisplay:10.37,2013-09-03 06:02:00,
2013-09-03 01:07:00,58.2,56.5,29.97,North,351,0.0,0.0,94,0.00,CLR,,0.00,0.0,WeatherDisplay:10.37,2013-09-03 06:07:00,
2013-09-03 01:12:00,58.0,56.3,29.97,North,351,0.0,0.0,94,0.00,CLR,,0.00,0.0,WeatherDisplay:10.37,2013-09-03 06:12:00,
2013-09-03 01:17:00,57.7,56.0,29.97,North,351,0.0,0.0,94,0.00,CLR,,0.00,0.0,WeatherDisplay:10.37,2013-09-03 06:17:00,
2013-09-03 01:23:00,57.2,55.5,29.96,North,351,1.1,1.1,94,0.00,CLR,,0.00,0.0,WeatherDisplay:10.37,2013-09-03 06:23:00,
2013-09-03 01:28:00,57.3,55.9,29.96,North,351,2.3,2.3,95,0.00,CLR,,0.00,0.0,WeatherDisplay:10.37,2013-09-03 06:28:00,
2013-09-03 01:33:00,57.2,55.5,29.97,North,351,0.0,0.0,94,0.00,BKN,,0.00,0.0,WeatherDisplay:10.37,2013-09-03 06:33:00,
2013-09-03 01:38:00,57.1,55.7,29.97,North,351,0.0,0.0,95,0.00,BKN,,0.00,0.0,WeatherDisplay:10.37,2013-09-03 06:38:00,
2013-09-03 01:43:00,57.0,55.6,29.97,North,351,0.0,0.0,95,0.00,BKN,,0.00,0.0,WeatherDisplay:10.37,2013-09-03 06:43:00,
2013-09-03 01:48:00,57.0,55.6,29.97,North,351,0.0,0.0,95,0.00,BKN,,0.00,0.0,WeatherDisplay:10.37,2013-09-03 06:48:00,
2013-09-03 01:53:00,56.8,55.1,29.97,North,351,0.0,0.0,94,0.00,BKN,,0.00,0.0,WeatherDisplay:10.37,2013-09-03 06:53:00,
2013-09-03 01:58:00,56.7,55.3,29.96,North,351,0.0,0.0,95,0.00,BKN,,0.00,0.0,WeatherDisplay:10.37,2013-09-03 06:58:00,
2013-09-03 02:03:00,56.4,54.7,29.97,North,351,0.0,0.0,94,0.00,SCT,,0.00,0.0,WeatherDisplay:10.37,2013-09-03 07:03:00,
2013-09-03 02:08:00,57.0,55.9,29.97,NW,314,4.0,4.0,96,0.00,SCT,,0.00,0.0,WeatherDisplay:10.37,2013-09-03 07:08:00,
2013-09-03 02:13:00,58.0,56.9,29.97,NW,311,3.5,3.5,96,0.00,SCT,,0.00,0.0,WeatherDisplay:10.37,2013-09-03 07:13:00,
2013-09-03 02:18:00,58.2,57.1,29.97,NW,311,3.5,3.5,96,0.00,SCT,,0.00,0.0,WeatherDisplay:10.37,2013-09-03 07:18:00,
2013-09-03 02:23:00,58.3,57.2,29.97,NW,311,3.5,3.5,96,0.00,SCT,,0.00,0.0,WeatherDisplay:10.37,2013-09-03 07:23:00,
2013-09-03 02:28:00,58.3,56.9,29.97,NW,311,3.5,3.5,95,0.00,SCT,,0.00,0.0,WeatherDisplay:10.37,2013-09-03 07:28:00,
2013-09-03 02:33:00,58.4,57.0,29.97,NW,311,2.3,2.3,95,0.00,CLR,,0.00,0.0,WeatherDisplay:10.37,2013-09-03 07:33:00,
2013-09-03 02:38:00,58.4,57.0,29.97,NW,311,3.5,3.5,95,0.00,CLR,,0.00,0.0,WeatherDisplay:10.37,2013-09-03 07:38:00,
2013-09-03 02:43:00,58.5,57.1,29.98,NW,311,2.3,2.3,95,0.00,CLR,,0.00,0.0,WeatherDisplay:10.37,2013-09-03 07:43:00,
2013-09-03 02:48:00,58.6,57.2,29.97,NW,311,3.5,3.5,95,0.00,BKN,,0.00,0.0,WeatherDisplay:10.37,2013-09-03 07:48:00,
2013-09-03 02:53:00,58.8,57.4,29.98,NW,311,3.5,3.5,95,0.00,BKN,,0.00,0.0,WeatherDisplay:10.37,2013-09-03 07:53:00,
2013-09-03 02:58:00,58.9,57.5,29.98,NW,311,4.6,4.6,95,0.00,BKN,,0.00,0.0,WeatherDisplay:10.37,2013-09-03 07:58:00,
2013-09-03 03:03:00,59.0,57.6,29.98,NW,311,3.5,3.5,95,0.00,BKN,,0.00,0.0,WeatherDisplay:10.37,2013-09-03 08:03:00,
2013-09-03 03:08:00,59.0,57.6,29.98,NW,310,4.0,4.0,95,0.00,BKN,,0.00,0.0,WeatherDisplay:10.37,2013-09-03 08:08:00,
2013-09-03 03:13:00,58.9,57.2,29.98,NW,310,3.5,3.5,94,0.00,BKN,,0.00,0.0,WeatherDisplay:10.37,2013-09-03 08:13:00,
2013-09-03 03:18:00,58.9,57.2,29.98,NW,310,3.5,3.5,94,0.00,BKN,,0.00,0.0,WeatherDisplay:10.37,2013-09-03 08:18:00,
2013-09-03 03:23:00,58.8,56.8,29.98,NW,310,3.5,3.5,93,0.00,BKN,,0.00,0.0,WeatherDisplay:10.37,2013-09-03 08:23:00,
2013-09-03 03:28:00,58.8,56.8,29.98,NW,310,3.5,3.5,93,0.00,BKN,,0.00,0.0,WeatherDisplay:10.37,2013-09-03 08:28:00,
2013-09-03 03:33:00,58.7,56.7,29.98,NW,310,3.5,3.5,93,0.00,OVC,,0.00,0.0,WeatherDisplay:10.37,2013-09-03 08:33:00,
2013-09-03 03:38:00,58.7,56.7,29.98,WNW,296,2.3,2.3,93,0.00,OVC,,0.00,0.0,WeatherDisplay:10.37,2013-09-03 08:38:00,
2013-09-03 03:43:00,58.6,56.3,29.98,WNW,301,3.5,3.5,92,0.00,OVC,,0.00,0.0,WeatherDisplay:10.37,2013-09-03 08:43:00,
2013-09-03 03:48:00,58.5,56.2,29.98,WNW,301,2.3,2.3,92,0.00,OVC,,0.00,0.0,WeatherDisplay:10.37,2013-09-03 08:48:00,
2013-09-03 03:53:00,58.5,56.2,29.99,WNW,301,0.0,0.0,92,0.00,OVC,,0.00,0.0,WeatherDisplay:10.37,2013-09-03 08:53:00,
2013-09-03 03:58:00,58.5,56.2,29.99,WNW,301,2.3,2.3,92,0.00,OVC,,0.00,0.0,WeatherDisplay:10.37,2013-09-03 08:58:00,
2013-09-03 04:03:00,58.5,56.2,29.99,WNW,301,2.3,2.3,92,0.00,OVC,,0.00,0.0,WeatherDisplay:10.37,2013-09-03 09:03:00,
2013-09-03 04:08:00,58.5,56.2,29.99,NW,314,4.6,4.6,92,0.00,OVC,,0.00,0.0,WeatherDisplay:10.37,2013-09-03 09:08:00,
2013-09-03 04:13:00,58.6,56.0,29.99,NW,311,5.8,5.8,91,0.00,OVC,,0.00,0.0,WeatherDisplay:10.37,2013-09-03 09:13:00,
2013-09-03 04:18:00,58.6,56.0,29.99,NW,315,4.0,4.0,91,0.00,OVC,,0.00,0.0,WeatherDisplay:10.37,2013-09-03 09:18:00,
2013-09-03 04:23:00,58.5,55.6,29.99,NW,319,5.8,5.8,90,0.00,OVC,,0.00,0.0,WeatherDisplay:10.37,2013-09-03 09:23:00,
2013-09-03 04:28:00,58.3,55.4,29.99,NW,319,3.5,3.5,90,0.00,OVC,,0.00,0.0,WeatherDisplay:10.37,2013-09-03 09:28:00,
2013-09-03 04:33:00,58.0,55.1,29.99,NW,319,3.5,3.5,90,0.00,OVC,,0.00,0.0,WeatherDisplay:10.37,2013-09-03 09:33:00,
2013-09-03 04:38:00,57.7,54.8,29.99,NNW,330,4.6,4.6,90,0.00,OVC,,0.00,0.0,WeatherDisplay:10.37,2013-09-03 09:38:00,
2013-09-03 04:43:00,57.4,54.8,29.99,NW,325,4.0,4.0,91,0.00,OVC,,0.00,0.0,WeatherDisplay:10.37,2013-09-03 09:43:00,
2013-09-03 04:48:00,57.1,54.5,29.99,NW,325,4.6,4.6,91,0.00,OVC,,0.00,0.0,WeatherDisplay:10.37,2013-09-03 09:48:00,
2013-09-03 04:53:00,57.0,54.4,30.00,NW,325,4.6,4.6,91,0.00,OVC,,0.00,0.0,WeatherDisplay:10.37,2013-09-03 09:53:00,
2013-09-03 04:58:00,56.9,54.3,29.99,NW,325,3.5,3.5,91,0.00,OVC,,0.00,0.0,WeatherDisplay:10.37,2013-09-03 09:58:00,
2013-09-03 05:03:00,56.9,54.3,30.00,NW,325,3.5,3.5,91,0.00,OVC,,0.00,0.0,WeatherDisplay:10.37,2013-09-03 10:03:00,
2013-09-03 05:08:00,57.0,54.1,30.00,NW,319,3.5,3.5,90,0.00,OVC,,0.00,0.0,WeatherDisplay:10.37,2013-09-03 10:08:00,
2013-09-03 05:13:00,57.0,54.1,30.00,NW,321,4.6,4.6,90,0.00,OVC,,0.00,0.0,WeatherDisplay:10.37,2013-09-03 10:13:00,
2013-09-03 05:18:00,56.9,54.0,30.00,NW,324,4.6,4.6,90,0.00,SCT,,0.00,0.0,WeatherDisplay:10.37,2013-09-03 10:18:00,
2013-09-03 05:23:00,57.1,53.9,30.00,NNW,327,4.6,4.6,89,0.00,SCT,,0.00,0.0,WeatherDisplay:10.37,2013-09-03 10:23:00,
2013-09-03 05:28:00,56.9,53.7,30.01,NNW,327,4.0,4.0,89,0.00,SCT,,0.00,0.0,WeatherDisplay:10.37,2013-09-03 10:28:00,
2013-09-03 05:33:00,56.8,53.6,30.01,NW,326,3.5,3.5,89,0.00,SCT,,0.00,0.0,WeatherDisplay:10.37,2013-09-03 10:33:00,
2013-09-03 05:38:00,56.7,53.8,30.01,NW,325,4.0,4.0,90,0.00,SCT,,0.00,0.0,WeatherDisplay:10.37,2013-09-03 10:38:00,
2013-09-03 05:43:00,56.9,54.0,30.02,NW,311,4.6,4.6,90,0.00,SCT,,0.00,0.0,WeatherDisplay:10.37,2013-09-03 10:43:00,
2013-09-03 05:48:00,57.1,53.9,30.02,NW,317,4.6,4.6,89,0.00,CLR,,0.00,0.0,WeatherDisplay:10.37,2013-09-03 10:48:00,
2013-09-03 05:53:00,57.2,54.0,30.02,NW,319,6.9,6.9,89,0.00,CLR,,0.00,0.0,WeatherDisplay:10.37,2013-09-03 10:53:00,
2013-09-03 05:58:00,57.4,54.2,30.02,NW,315,5.8,5.8,89,0.00,CLR,,0.00,0.0,WeatherDisplay:10.37,2013-09-03 10:58:00,
2013-09-03 06:03:00,57.4,54.2,30.02,NW,314,4.6,4.6,89,0.00,CLR,,0.00,0.0,WeatherDisplay:10.37,2013-09-03 11:03:00,
2013-09-03 06:08:00,57.4,53.9,30.02,NW,317,5.8,5.8,88,0.00,CLR,,0.00,0.0,WeatherDisplay:10.37,2013-09-03 11:08:00,
2013-09-03 06:13:00,57.3,54.1,30.02,NW,320,5.0,5.0,89,0.00,CLR,,0.00,0.0,WeatherDisplay:10.37,2013-09-03 11:13:00,
2013-09-03 06:18:00,57.3,54.1,30.02,NW,311,4.6,5.0,89,0.00,CLR,,0.00,0.0,WeatherDisplay:10.37,2013-09-03 11:18:00,
2013-09-03 06:23:00,57.4,54.2,30.03,NW,316,5.8,5.8,89,0.00,CLR,,0.00,0.0,WeatherDisplay:10.37,2013-09-03 11:23:00,
2013-09-03 06:28:00,57.4,54.2,30.03,NW,313,6.0,6.0,89,0.00,CLR,,0.00,5.0,WeatherDisplay:10.37,2013-09-03 11:28:00,
2013-09-03 06:33:00,57.5,54.3,30.03,WNW,300,3.5,3.5,89,0.00,CLR,,0.00,9.0,WeatherDisplay:10.37,2013-09-03 11:33:00,
2013-09-03 06:38:00,57.5,54.3,30.03,NW,312,3.5,3.5,89,0.00,CLR,,0.00,11.0,WeatherDisplay:10.37,2013-09-03 11:38:00,
2013-09-03 06:44:00,57.6,54.4,30.03,NW,313,4.6,4.6,89,0.00,CLR,,0.00,16.0,WeatherDisplay:10.37,2013-09-03 11:44:00,
2013-09-03 06:49:00,57.7,54.5,30.03,NW,309,4.6,4.6,89,0.00,BKN,,0.00,23.0,WeatherDisplay:10.37,2013-09-03 11:49:00,
2013-09-03 06:54:00,57.9,54.7,30.04,NW,324,5.8,5.8,89,0.00,BKN,,0.00,28.0,WeatherDisplay:10.37,2013-09-03 11:54:00,
2013-09-03 06:59:00,58.0,54.8,30.04,NW,319,4.6,4.6,89,0.00,BKN,,0.00,32.0,WeatherDisplay:10.37,2013-09-03 11:59:00,
2013-09-03 07:04:00,58.0,54.8,30.04,NW,311,5.8,5.8,89,0.00,BKN,,0.00,54.0,WeatherDisplay:10.37,2013-09-03 12:04:00,
2013-09-03 07:09:00,58.2,55.0,30.04,NW,314,2.3,2.3,89,0.00,BKN,,0.00,60.0,WeatherDisplay:10.37,2013-09-03 12:09:00,
2013-09-03 07:14:00,58.4,54.9,30.04,NW,314,2.3,2.3,88,0.00,BKN,,0.00,65.0,WeatherDisplay:10.37,2013-09-03 12:14:00,
2013-09-03 07:19:00,58.6,55.1,30.05,NW,314,0.0,0.0,88,0.00,BKN,,0.00,77.0,WeatherDisplay:10.37,2013-09-03 12:19:00,
2013-09-03 07:24:00,58.7,55.2,30.05,NW,314,0.0,0.0,88,0.00,BKN,,0.00,97.0,WeatherDisplay:10.37,2013-09-03 12:24:00,
2013-09-03 07:29:00,59.0,55.8,30.05,NW,314,0.0,0.0,89,0.00,BKN,,0.00,123.0,WeatherDisplay:10.37,2013-09-03 12:29:00,
2013-09-03 07:34:00,59.5,56.3,30.05,NW,314,0.0,0.0,89,0.00,BKN,,0.00,104.0,WeatherDisplay:10.37,2013-09-03 12:34:00,
2013-09-03 07:39:00,59.7,55.8,30.05,NW,314,1.0,0.0,87,0.00,BKN,,0.00,176.0,WeatherDisplay:10.37,2013-09-03 12:39:00,
2013-09-03 07:44:00,59.8,55.3,30.05,NW,314,2.3,2.3,85,0.00,BKN,,0.00,213.0,WeatherDisplay:10.37,2013-09-03 12:44:00,
2013-09-03 07:49:00,59.9,55.7,30.05,NW,314,3.5,3.5,86,0.00,BKN,,0.00,128.0,WeatherDisplay:10.37,2013-09-03 12:49:00,
2013-09-03 07:54:00,60.0,55.8,30.05,NW,314,3.5,3.5,86,0.00,BKN,,0.00,255.0,WeatherDisplay:10.37,2013-09-03 12:54:00,
2013-09-03 07:59:00,60.3,56.4,30.05,NW,314,1.0,1.0,87,0.00,BKN,,0.00,146.0,WeatherDisplay:10.37,2013-09-03 12:59:00,
2013-09-03 08:04:00,60.6,56.7,30.05,NW,314,3.5,3.5,87,0.00,BKN,,0.00,153.0,WeatherDisplay:10.37,2013-09-03 13:04:00,
2013-09-03 08:09:00,60.4,55.9,30.05,NW,314,4.6,4.6,85,0.00,BKN,,0.00,137.0,WeatherDisplay:10.37,2013-09-03 13:09:00,
2013-09-03 08:14:00,60.6,56.4,30.05,NW,325,4.6,4.6,86,0.00,BKN,,0.00,323.0,WeatherDisplay:10.37,2013-09-03 13:14:00,
2013-09-03 08:19:00,60.6,56.4,30.05,NW,322,3.5,3.5,86,0.00,SCT,,0.00,163.0,WeatherDisplay:10.37,2013-09-03 13:19:00,
2013-09-03 08:24:00,60.7,56.5,30.05,NW,322,3.5,3.5,86,0.00,SCT,,0.00,234.0,WeatherDisplay:10.37,2013-09-03 13:24:00,
2013-09-03 08:29:00,60.8,56.6,30.05,NW,322,3.5,3.5,86,0.00,SCT,,0.00,171.0,WeatherDisplay:10.37,2013-09-03 13:29:00,
2013-09-03 08:34:00,60.8,56.6,30.05,NW,321,3.5,3.5,86,0.00,SCT,,0.00,172.0,WeatherDisplay:10.37,2013-09-03 13:34:00,
2013-09-03 08:39:00,61.4,57.8,30.05,NW,321,4.6,4.6,88,0.00,SCT,,0.00,308.0,WeatherDisplay:10.37,2013-09-03 13:39:00,
2013-09-03 08:44:00,61.7,57.5,30.05,NW,319,2.3,2.3,86,0.00,SCT,,0.00,439.0,WeatherDisplay:10.37,2013-09-03 13:44:00,
2013-09-03 08:49:00,62.3,57.7,30.05,NW,315,6.9,6.9,85,0.00,CLR,,0.00,413.0,WeatherDisplay:10.37,2013-09-03 13:49:00,
2013-09-03 08:54:00,62.7,57.5,30.05,NNW,331,6.0,6.0,83,0.00,CLR,,0.00,424.0,WeatherDisplay:10.37,2013-09-03 13:54:00,
2013-09-03 08:59:00,63.0,57.8,30.05,NNW,333,5.8,5.8,83,0.00,CLR,,0.00,434.0,WeatherDisplay:10.37,2013-09-03 13:59:00,
2013-09-03 09:04:00,63.4,57.5,30.05,NW,322,5.8,5.8,81,0.00,CLR,,0.00,446.0,WeatherDisplay:10.37,2013-09-03 14:04:00,
2013-09-03 09:09:00,64.0,58.4,30.05,NW,322,5.0,5.0,82,0.00,CLR,,0.00,457.0,WeatherDisplay:10.37,2013-09-03 14:09:00,
2013-09-03 09:14:00,64.6,58.6,30.05,NNW,348,4.6,4.6,81,0.00,CLR,,0.00,476.0,WeatherDisplay:10.37,2013-09-03 14:14:00,
2013-09-03 09:19:00,65.4,59.1,30.05,NW,319,4.0,4.0,80,0.00,CLR,,0.00,492.0,WeatherDisplay:10.37,2013-09-03 14:19:00,
2013-09-03 09:24:00,65.9,58.5,30.05,North,5,4.6,4.6,77,0.00,CLR,,0.00,506.0,WeatherDisplay:10.37,2013-09-03 14:24:00,
2013-09-03 09:29:00,66.7,58.9,30.05,NNE,23,3.5,3.5,76,0.00,CLR,,0.00,520.0,WeatherDisplay:10.37,2013-09-03 14:29:00,
2013-09-03 09:34:00,67.3,57.6,30.05,NNE,15,5.8,5.8,71,0.00,CLR,,0.00,534.0,WeatherDisplay:10.37,2013-09-03 14:34:00,
2013-09-03 09:39:00,67.7,57.6,30.05,NNW,334,4.6,4.6,70,0.00,CLR,,0.00,548.0,WeatherDisplay:10.37,2013-09-03 14:39:00,
2013-09-03 09:44:00,68.1,57.9,30.05,NW,321,8.1,8.1,70,0.00,CLR,,0.00,566.0,WeatherDisplay:10.37,2013-09-03 14:44:00,
2013-09-03 09:49:00,68.5,56.7,30.05,NNW,338,6.0,6.0,66,0.00,CLR,,0.00,584.0,WeatherDisplay:10.37,2013-09-03 14:49:00,
2013-09-03 09:54:00,68.7,56.9,30.06,NW,314,8.1,8.1,66,0.00,CLR,,0.00,598.0,WeatherDisplay:10.37,2013-09-03 14:54:00,
2013-09-03 09:59:00,68.5,56.3,30.06,NNW,328,6.9,6.9,65,0.00,CLR,,0.00,638.0,WeatherDisplay:10.37,2013-09-03 14:59:00,
2013-09-03 10:04:00,68.6,56.8,30.06,North,355,10.4,10.4,66,0.00,CLR,,0.00,661.0,WeatherDisplay:10.37,2013-09-03 15:04:00,
2013-09-03 10:09:00,68.1,55.0,30.06,NW,320,4.0,4.0,63,0.00,CLR,,0.00,116.0,WeatherDisplay:10.37,2013-09-03 15:09:00,
2013-09-03 10:14:00,68.2,56.0,30.06,NW,313,8.1,8.1,65,0.00,CLR,,0.00,722.0,WeatherDisplay:10.37,2013-09-03 15:14:00,
2013-09-03 10:19:00,68.3,56.5,30.06,NW,307,5.0,5.0,66,0.00,CLR,,0.00,190.0,WeatherDisplay:10.37,2013-09-03 15:19:00,
2013-09-03 10:24:00,68.1,56.3,30.06,West,273,4.6,4.6,66,0.00,CLR,,0.00,301.0,WeatherDisplay:10.37,2013-09-03 15:24:00,
2013-09-03 10:29:00,68.4,57.4,30.06,North,5,6.9,6.9,68,0.00,CLR,,0.00,847.0,WeatherDisplay:10.37,2013-09-03 15:29:00,
2013-09-03 10:34:00,69.3,57.0,30.07,NW,309,7.0,7.0,65,0.00,SCT,,0.00,828.0,WeatherDisplay:10.37,2013-09-03 15:34:00,
2013-09-03 10:39:00,69.5,56.3,30.07,NNW,336,8.1,8.1,63,0.00,SCT,,0.00,789.0,WeatherDisplay:10.37,2013-09-03 15:39:00,
2013-09-03 10:44:00,69.3,57.0,30.07,NW,315,5.8,5.8,65,0.00,SCT,,0.00,796.0,WeatherDisplay:10.37,2013-09-03 15:44:00,
2013-09-03 10:49:00,69.8,57.1,30.07,NW,315,5.8,5.8,64,0.00,SCT,,0.00,828.0,WeatherDisplay:10.37,2013-09-03 15:49:00,
2013-09-03 10:54:00,70.4,56.8,30.07,WSW,245,8.1,8.1,62,0.00,SCT,,0.00,860.0,WeatherDisplay:10.37,2013-09-03 15:54:00,
2013-09-03 10:59:00,70.3,56.2,30.07,North,5,10.4,10.4,61,0.00,SCT,,0.00,202.0,WeatherDisplay:10.37,2013-09-03 15:59:00,
2013-09-03 11:04:00,69.6,56.9,30.08,West,267,6.9,6.9,64,0.00,SCT,,0.00,867.0,WeatherDisplay:10.37,2013-09-03 16:04:00,
2013-09-03 11:09:00,70.1,58.2,30.08,NW,308,6.0,6.0,66,0.00,SCT,,0.00,900.0,WeatherDisplay:10.37,2013-09-03 16:09:00,
2013-09-03 11:14:00,70.7,58.4,30.08,NW,308,7.0,7.0,65,0.00,SCT,,0.00,909.0,WeatherDisplay:10.37,2013-09-03 16:14:00,
2013-09-03 11:19:00,70.0,55.9,30.08,NNW,332,9.2,9.2,61,0.00,BKN,,0.00,225.0,WeatherDisplay:10.37,2013-09-03 16:19:00,
2013-09-03 11:24:00,69.9,56.7,30.07,NNW,331,6.9,6.9,63,0.00,BKN,,0.00,919.0,WeatherDisplay:10.37,2013-09-03 16:24:00,
2013-09-03 11:29:00,70.6,58.3,30.07,WNW,296,8.1,8.1,65,0.00,BKN,,0.00,919.0,WeatherDisplay:10.37,2013-09-03 16:29:00,
2013-09-03 11:34:00,71.1,57.4,30.08,WNW,302,8.1,8.1,62,0.00,BKN,,0.00,260.0,WeatherDisplay:10.37,2013-09-03 16:34:00,
2013-09-03 11:39:00,70.5,55.0,30.08,WNW,286,5.8,5.8,58,0.00,BKN,,0.00,195.0,WeatherDisplay:10.37,2013-09-03 16:39:00,
2013-09-03 11:44:00,70.8,56.7,30.08,WNW,298,5.8,5.8,61,0.00,BKN,,0.00,954.0,WeatherDisplay:10.37,2013-09-03 16:44:00,
2013-09-03 11:49:00,71.4,56.3,30.07,NW,308,11.0,11.0,59,0.00,BKN,,0.00,1053.0,WeatherDisplay:10.37,2013-09-03 16:49:00,
2013-09-03 11:54:00,71.3,56.7,30.07,NW,316,10.4,10.4,60,0.00,BKN,,0.00,339.0,WeatherDisplay:10.37,2013-09-03 16:54:00,
2013-09-03 11:59:00,70.7,57.0,30.07,NNW,327,8.0,8.0,62,0.00,BKN,,0.00,327.0,WeatherDisplay:10.37,2013-09-03 16:59:00,
2013-09-03 12:04:00,71.3,56.7,30.07,NW,319,7.0,7.0,60,0.00,SCT,,0.00,930.0,WeatherDisplay:10.37,2013-09-03 17:04:00,
2013-09-03 12:09:00,71.6,58.3,30.07,NW,326,11.0,11.0,63,0.00,SCT,,0.00,991.0,WeatherDisplay:10.37,2013-09-03 17:09:00,
2013-09-03 12:14:00,71.7,56.6,30.07,NNW,344,9.2,9.2,59,0.00,SCT,,0.00,216.0,WeatherDisplay:10.37,2013-09-03 17:14:00,
2013-09-03 12:20:00,71.7,56.6,30.07,NNW,344,8.1,8.1,59,0.00,SCT,,0.00,918.0,WeatherDisplay:10.37,2013-09-03 17:20:00,
2013-09-03 12:25:00,72.2,56.6,30.07,WSW,248,8.1,8.1,58,0.00,SCT,,0.00,1009.0,WeatherDisplay:10.37,2013-09-03 17:25:00,
2013-09-03 12:30:00,72.4,57.3,30.07,NW,315,8.0,8.0,59,0.00,SCT,,0.00,306.0,WeatherDisplay:10.37,2013-09-03 17:30:00,
2013-09-03 12:35:00,71.5,56.9,30.07,WNW,302,9.2,9.2,60,0.00,BKN,,0.00,218.0,WeatherDisplay:10.37,2013-09-03 17:35:00,
2013-09-03 12:40:00,70.8,57.6,30.07,NW,311,5.0,5.0,63,0.00,BKN,,0.00,893.0,WeatherDisplay:10.37,2013-09-03 17:40:00,
2013-09-03 12:45:00,71.3,56.2,30.07,WNW,298,2.3,0.0,59,0.00,BKN,,0.00,888.0,WeatherDisplay:10.37,2013-09-03 17:45:00,
2013-09-03 12:50:00,71.7,56.1,30.06,North,360,5.8,5.8,58,0.00,SCT,,0.00,932.0,WeatherDisplay:10.37,2013-09-03 17:50:00,
2013-09-03 12:55:00,71.4,56.8,30.06,NNW,336,9.2,9.2,60,0.00,SCT,,0.00,223.0,WeatherDisplay:10.37,2013-09-03 17:55:00,
2013-09-03 13:00:00,71.0,56.9,30.06,NNW,336,10.4,10.4,61,0.00,SCT,,0.00,234.0,WeatherDisplay:10.37,2013-09-03 18:00:00,
2013-09-03 13:05:00,71.0,55.5,30.06,West,267,4.6,4.6,58,0.00,SCT,,0.00,209.0,WeatherDisplay:10.37,2013-09-03 18:05:00,
2013-09-03 13:10:00,71.1,56.0,30.06,SW,225,2.3,2.3,59,0.00,SCT,,0.00,185.0,WeatherDisplay:10.37,2013-09-03 18:10:00,
2013-09-03 13:15:00,71.8,56.7,30.05,North,355,6.9,6.9,59,0.00,SCT,,0.00,854.0,WeatherDisplay:10.37,2013-09-03 18:15:00,
2013-09-03 13:20:00,72.5,57.4,30.05,WSW,240,5.0,5.0,59,0.00,SCT,,0.00,828.0,WeatherDisplay:10.37,2013-09-03 18:20:00,
2013-09-03 13:25:00,72.9,57.3,30.05,WNW,290,8.1,8.1,58,0.00,SCT,,0.00,831.0,WeatherDisplay:10.37,2013-09-03 18:25:00,
2013-09-03 13:30:00,73.0,56.4,30.05,NW,304,3.5,3.7,56,0.00,SCT,,0.00,872.0,WeatherDisplay:10.37,2013-09-03 18:30:00,
2013-09-03 13:35:00,73.0,56.4,30.05,West,273,1.1,0.0,56,0.00,SCT,,0.00,872.0,WeatherDisplay:10.37,2013-09-03 18:35:00,
2013-09-03 13:40:00,73.3,57.1,30.05,West,269,5.8,5.8,57,0.00,SCT,,0.00,831.0,WeatherDisplay:10.37,2013-09-03 18:40:00,
2013-09-03 13:45:00,73.3,57.1,30.05,WSW,244,9.0,9.0,57,0.00,SCT,,0.00,807.0,WeatherDisplay:10.37,2013-09-03 18:45:00,
2013-09-03 13:50:00,73.4,59.1,30.05,WSW,244,8.1,8.1,61,0.00,SCT,,0.00,805.0,WeatherDisplay:10.37,2013-09-03 18:50:00,
2013-09-03 13:55:00,73.5,58.8,30.05,NW,306,5.8,5.8,60,0.00,SCT,,0.00,809.0,WeatherDisplay:10.37,2013-09-03 18:55:00,
2013-09-03 14:00:00,73.9,57.7,30.05,WSW,239,6.9,6.9,57,0.00,SCT,,0.00,821.0,WeatherDisplay:10.37,2013-09-03 19:00:00,
2013-09-03 14:05:00,74.2,56.5,30.04,SW,216,6.9,6.9,54,0.00,SCT,,0.00,819.0,WeatherDisplay:10.37,2013-09-03 19:05:00,
2013-09-03 14:10:00,74.2,58.9,30.03,NNW,346,10.0,10.0,59,0.00,SCT,,0.00,798.0,WeatherDisplay:10.37,2013-09-03 19:10:00,
2013-09-03 14:15:00,74.5,57.8,30.04,WSW,250,8.1,8.1,56,0.00,SCT,,0.00,766.0,WeatherDisplay:10.37,2013-09-03 19:15:00,
2013-09-03 14:20:00,74.4,59.1,30.03,WNW,282,6.0,6.0,59,0.00,SCT,,0.00,770.0,WeatherDisplay:10.37,2013-09-03 19:20:00,
2013-09-03 14:25:00,74.5,57.3,30.03,WNW,282,9.0,9.0,55,0.00,SCT,,0.00,749.0,WeatherDisplay:10.37,2013-09-03 19:25:00,
2013-09-03 14:30:00,74.1,56.4,30.03,West,273,8.1,8.1,54,0.00,SCT,,0.00,744.0,WeatherDisplay:10.37,2013-09-03 19:30:00,
2013-09-03 14:35:00,73.9,56.2,30.03,WNW,303,3.5,3.5,54,0.00,CLR,,0.00,737.0,WeatherDisplay:10.37,2013-09-03 19:35:00,
2013-09-03 14:40:00,74.1,56.9,30.03,NNW,341,9.2,9.2,55,0.00,CLR,,0.00,726.0,WeatherDisplay:10.37,2013-09-03 19:40:00,
2013-09-03 14:45:00,74.4,57.7,30.02,NNW,329,7.0,7.0,56,0.00,CLR,,0.00,721.0,WeatherDisplay:10.37,2013-09-03 19:45:00,
2013-09-03 14:50:00,74.6,57.4,30.02,WSW,253,6.0,6.0,55,0.00,CLR,,0.00,719.0,WeatherDisplay:10.37,2013-09-03 19:50:00,
2013-09-03 14:55:00,74.7,58.0,30.02,NW,326,9.2,9.2,56,0.00,CLR,,0.00,710.0,WeatherDisplay:10.37,2013-09-03 19:55:00,
2013-09-03 15:00:00,74.6,57.4,30.02,NNW,344,6.9,6.9,55,0.00,CLR,,0.00,701.0,WeatherDisplay:10.37,2013-09-03 20:00:00,
2013-09-03 15:05:00,74.8,57.0,30.02,WSW,248,9.2,9.2,54,0.00,CLR,,0.00,707.0,WeatherDisplay:10.37,2013-09-03 20:05:00,
2013-09-03 15:10:00,74.8,56.5,30.02,NNW,347,8.1,8.1,53,0.00,CLR,,0.00,691.0,WeatherDisplay:10.37,2013-09-03 20:10:00,
2013-09-03 15:15:00,74.8,56.5,30.02,NW,322,5.0,5.4,53,0.00,CLR,,0.00,626.0,WeatherDisplay:10.37,2013-09-03 20:15:00,
2013-09-03 15:20:00,74.4,57.7,30.02,WNW,296,10.4,10.4,56,0.00,CLR,,0.00,489.0,WeatherDisplay:10.37,2013-09-03 20:20:00,
2013-09-03 15:25:00,74.4,57.2,30.01,SW,235,6.9,6.9,55,0.00,CLR,,0.00,487.0,WeatherDisplay:10.37,2013-09-03 20:25:00,
2013-09-03 15:30:00,74.6,56.9,30.01,WNW,296,6.9,6.9,54,0.00,CLR,,0.00,633.0,WeatherDisplay:10.37,2013-09-03 20:30:00,
2013-09-03 15:35:00,74.8,57.5,30.01,West,267,3.5,4.3,55,0.00,CLR,,0.00,617.0,WeatherDisplay:10.37,2013-09-03 20:35:00,
2013-09-03 15:40:00,74.9,57.1,30.01,West,262,11.5,11.5,54,0.00,CLR,,0.00,563.0,WeatherDisplay:10.37,2013-09-03 20:40:00,
2013-09-03 15:45:00,74.6,56.9,30.01,SW,227,3.5,3.5,54,0.00,CLR,,0.00,438.0,WeatherDisplay:10.37,2013-09-03 20:45:00,
2013-09-03 15:50:00,74.3,57.1,30.01,NW,311,6.9,6.9,55,0.00,CLR,,0.00,264.0,WeatherDisplay:10.37,2013-09-03 20:50:00,
2013-09-03 15:55:00,74.0,57.3,30.01,NW,313,11.0,11.0,56,0.00,CLR,,0.00,392.0,WeatherDisplay:10.37,2013-09-03 20:55:00,
2013-09-03 16:00:00,73.9,57.7,30.01,NW,306,9.0,9.0,57,0.00,CLR,,0.00,369.0,WeatherDisplay:10.37,2013-09-03 21:00:00,
2013-09-03 16:05:00,73.7,57.0,30.01,NW,314,6.9,6.9,56,0.00,CLR,,0.00,306.0,WeatherDisplay:10.37,2013-09-03 21:05:00,
2013-09-03 16:10:00,74.0,56.8,30.01,West,281,6.9,6.9,55,0.00,CLR,,0.00,615.0,WeatherDisplay:10.37,2013-09-03 21:10:00,
2013-09-03 16:15:00,74.4,57.7,30.01,NNW,338,9.2,9.2,56,0.00,CLR,,0.00,568.0,WeatherDisplay:10.37,2013-09-03 21:15:00,
2013-09-03 16:20:00,74.4,56.7,30.01,NW,304,8.1,8.1,54,0.00,CLR,,0.00,243.0,WeatherDisplay:10.37,2013-09-03 21:20:00,
2013-09-03 16:25:00,73.8,56.6,30.01,WNW,301,6.9,6.9,55,0.00,CLR,,0.00,306.0,WeatherDisplay:10.37,2013-09-03 21:25:00,
2013-09-03 16:30:00,73.6,56.4,30.01,West,263,6.9,6.9,55,0.00,CLR,,0.00,213.0,WeatherDisplay:10.37,2013-09-03 21:30:00,
2013-09-03 16:35:00,73.3,56.7,30.01,NW,309,8.1,8.1,56,0.00,CLR,,0.00,237.0,WeatherDisplay:10.37,2013-09-03 21:35:00,
2013-09-03 16:40:00,73.1,57.0,30.01,North,355,11.0,11.0,57,0.00,CLR,,0.00,220.0,WeatherDisplay:10.37,2013-09-03 21:40:00,
2013-09-03 16:45:00,73.0,56.9,30.01,WSW,240,4.6,4.6,57,0.00,CLR,,0.00,318.0,WeatherDisplay:10.37,2013-09-03 21:45:00,
2013-09-03 16:50:00,73.4,57.2,30.01,NW,314,4.6,4.6,57,0.00,CLR,,0.00,415.0,WeatherDisplay:10.37,2013-09-03 21:50:00,
2013-09-03 16:55:00,73.7,57.0,30.02,NW,319,8.0,8.0,56,0.00,CLR,,0.00,287.0,WeatherDisplay:10.37,2013-09-03 21:55:00,
2013-09-03 17:00:00,73.7,57.0,30.01,WSW,249,5.8,5.8,56,0.00,CLR,,0.00,418.0,WeatherDisplay:10.37,2013-09-03 22:00:00,
2013-09-03 17:05:00,74.1,56.9,30.01,WNW,300,8.1,8.1,55,0.00,CLR,,0.00,434.0,WeatherDisplay:10.37,2013-09-03 22:05:00,
2013-09-03 17:10:00,74.2,57.0,30.01,NW,324,5.0,5.0,55,0.00,CLR,,0.00,383.0,WeatherDisplay:10.37,2013-09-03 22:10:00,
2013-09-03 17:15:00,74.2,57.0,30.01,NNW,337,7.0,7.0,55,0.00,CLR,,0.00,301.0,WeatherDisplay:10.37,2013-09-03 22:15:00,
2013-09-03 17:20:00,73.4,56.2,30.01,NW,315,8.1,8.1,55,0.00,CLR,,0.00,118.0,WeatherDisplay:10.37,2013-09-03 22:20:00,
2013-09-03 17:25:00,73.1,56.5,30.01,NW,308,3.5,3.5,56,0.00,CLR,,0.00,334.0,WeatherDisplay:10.37,2013-09-03 22:25:00,
2013-09-03 17:30:00,73.0,55.9,30.02,NW,309,6.0,6.0,55,0.00,CLR,,0.00,93.0,WeatherDisplay:10.37,2013-09-03 22:30:00,
2013-09-03 17:35:00,72.5,55.9,30.02,NW,312,5.0,5.0,56,0.00,CLR,,0.00,105.0,WeatherDisplay:10.37,2013-09-03 22:35:00,
2013-09-03 17:40:00,72.3,56.7,30.02,NW,306,4.6,4.6,58,0.00,CLR,,0.00,318.0,WeatherDisplay:10.37,2013-09-03 22:40:00,
2013-09-03 17:45:00,72.5,56.9,30.02,NW,324,5.8,5.8,58,0.00,CLR,,0.00,155.0,WeatherDisplay:10.37,2013-09-03 22:45:00,
2013-09-03 17:51:00,72.7,57.1,30.01,WNW,297,4.6,4.6,58,0.00,CLR,,0.00,265.0,WeatherDisplay:10.37,2013-09-03 22:51:00,
2013-09-03 17:56:00,73.0,56.9,30.01,NW,309,5.8,5.8,57,0.00,CLR,,0.00,139.0,WeatherDisplay:10.37,2013-09-03 22:56:00,
2013-09-03 18:01:00,73.1,56.5,30.01,WNW,294,5.8,5.8,56,0.00,CLR,,0.00,128.0,WeatherDisplay:10.37,2013-09-03 23:01:00,
2013-09-03 18:06:00,72.8,56.7,30.01,NW,324,6.9,6.9,57,0.00,CLR,,0.00,158.0,WeatherDisplay:10.37,2013-09-03 23:06:00,
2013-09-03 18:11:00,72.8,57.2,30.01,NW,315,5.8,5.8,58,0.00,CLR,,0.00,239.0,WeatherDisplay:10.37,2013-09-03 23:11:00,
2013-09-03 18:16:00,72.9,56.3,30.01,SW,236,5.8,5.8,56,0.00,CLR,,0.00,192.0,WeatherDisplay:10.37,2013-09-03 23:16:00,
2013-09-03 18:21:00,72.6,57.0,30.01,NW,304,8.1,8.1,58,0.00,CLR,,0.00,105.0,WeatherDisplay:10.37,2013-09-03 23:21:00,
2013-09-03 18:26:00,72.3,57.2,30.01,NW,313,8.1,8.1,59,0.00,CLR,,0.00,77.0,WeatherDisplay:10.37,2013-09-03 23:26:00,
2013-09-03 18:31:00,71.9,56.8,30.01,NW,323,6.9,6.9,59,0.00,CLR,,0.00,65.0,WeatherDisplay:10.37,2013-09-03 23:31:00,
2013-09-03 18:36:00,71.6,56.5,30.02,NW,312,6.9,6.9,59,0.00,CLR,,0.00,56.0,WeatherDisplay:10.37,2013-09-03 23:36:00,
2013-09-03 18:41:00,71.3,56.7,30.02,NW,310,3.5,3.5,60,0.00,CLR,,0.00,44.0,WeatherDisplay:10.37,2013-09-03 23:41:00,
2013-09-03 18:46:00,71.0,56.4,30.02,NW,316,4.6,4.6,60,0.00,CLR,,0.00,40.0,WeatherDisplay:10.37,2013-09-03 23:46:00,
2013-09-03 18:51:00,70.9,56.8,30.02,NW,311,3.5,3.5,61,0.00,CLR,,0.00,37.0,WeatherDisplay:10.37,2013-09-03 23:51:00,
2013-09-03 18:56:00,70.7,57.0,30.02,NW,306,3.5,3.5,62,0.00,CLR,,0.00,33.0,WeatherDisplay:10.37,2013-09-03 23:56:00,
2013-09-03 19:01:00,70.6,56.9,30.02,NW,306,3.5,3.5,62,0.00,CLR,,0.00,33.0,WeatherDisplay:10.37,2013-09-04 00:01:00,
2013-09-03 19:06:00,70.4,57.2,30.02,NW,312,4.0,4.0,63,0.00,CLR,,0.00,26.0,WeatherDisplay:10.37,2013-09-04 00:06:00,
2013-09-03 19:11:00,70.2,57.0,30.02,NW,314,3.5,3.5,63,0.00,CLR,,0.00,16.0,WeatherDisplay:10.37,2013-09-04 00:11:00,
2013-09-03 19:16:00,69.9,56.7,30.02,NW,307,3.5,3.5,63,0.00,CLR,,0.00,9.0,WeatherDisplay:10.37,2013-09-04 00:16:00,
2013-09-03 19:21:00,69.7,57.0,30.02,NW,307,3.5,3.5,64,0.00,CLR,,0.00,5.0,WeatherDisplay:10.37,2013-09-04 00:21:00,
2013-09-03 19:26:00,69.4,56.7,30.02,NW,307,3.5,3.5,64,0.00,CLR,,0.00,0.0,WeatherDisplay:10.37,2013-09-04 00:26:00,
2013-09-03 19:31:00,69.3,57.0,30.02,NW,307,1.1,1.1,65,0.00,CLR,,0.00,0.0,WeatherDisplay:10.37,2013-09-04 00:31:00,
2013-09-03 19:36:00,69.1,57.3,30.02,NW,307,1.1,1.1,66,0.00,CLR,,0.00,0.0,WeatherDisplay:10.37,2013-09-04 00:36:00,
2013-09-03 19:41:00,68.6,57.2,30.02,NW,307,0.0,0.0,67,0.00,CLR,,0.00,0.0,WeatherDisplay:10.37,2013-09-04 00:41:00,
2013-09-03 19:46:00,68.1,57.1,30.02,NW,307,0.0,0.0,68,0.00,CLR,,0.00,0.0,WeatherDisplay:10.37,2013-09-04 00:46:00,
2013-09-03 19:51:00,67.4,56.9,30.02,NW,307,0.0,0.0,69,0.00,CLR,,0.00,0.0,WeatherDisplay:10.37,2013-09-04 00:51:00,
2013-09-03 19:56:00,66.7,56.6,30.02,NW,307,0.0,0.0,70,0.00,CLR,,0.00,0.0,WeatherDisplay:10.37,2013-09-04 00:56:00,
2013-09-03 20:01:00,65.8,56.9,30.02,NW,307,0.0,0.0,73,0.00,CLR,,0.00,0.0,WeatherDisplay:10.37,2013-09-04 01:01:00,
2013-09-03 20:06:00,64.8,57.1,30.03,NW,307,0.0,0.0,76,0.00,CLR,,0.00,0.0,WeatherDisplay:10.37,2013-09-04 01:06:00,
2013-09-03 20:11:00,63.8,56.1,30.03,NW,307,0.0,0.0,76,0.00,CLR,,0.00,0.0,WeatherDisplay:10.37,2013-09-04 01:11:00,
2013-09-03 20:16:00,62.7,55.7,30.03,NW,307,0.0,0.0,78,0.00,CLR,,0.00,0.0,WeatherDisplay:10.37,2013-09-04 01:16:00,
2013-09-03 20:21:00,62.0,56.1,30.03,NW,307,0.0,0.0,81,0.00,CLR,,0.00,0.0,WeatherDisplay:10.37,2013-09-04 01:21:00,
2013-09-03 20:26:00,61.4,56.2,30.04,NW,307,3.5,3.5,83,0.00,CLR,,0.00,0.0,WeatherDisplay:10.37,2013-09-04 01:26:00,
2013-09-03 20:31:00,62.5,56.6,30.04,NW,307,2.3,2.3,81,0.00,CLR,,0.00,0.0,WeatherDisplay:10.37,2013-09-04 01:31:00,
2013-09-03 20:36:00,63.8,56.8,30.04,WNW,288,3.5,3.5,78,0.00,CLR,,0.00,0.0,WeatherDisplay:10.37,2013-09-04 01:36:00,
2013-09-03 20:41:00,64.8,57.1,30.04,WNW,285,2.3,2.3,76,0.00,CLR,,0.00,0.0,WeatherDisplay:10.37,2013-09-04 01:41:00,
2013-09-03 20:46:00,65.4,56.9,30.03,WNW,285,1.1,1.1,74,0.00,CLR,,0.00,0.0,WeatherDisplay:10.37,2013-09-04 01:46:00,
2013-09-03 20:51:00,65.6,57.1,30.04,WNW,285,1.1,1.1,74,0.00,CLR,,0.00,0.0,WeatherDisplay:10.37,2013-09-04 01:51:00,
2013-09-03 20:56:00,65.7,57.2,30.04,WNW,285,1.1,1.1,74,0.00,CLR,,0.00,0.0,WeatherDisplay:10.37,2013-09-04 01:56:00,
2013-09-03 21:01:00,65.6,56.7,30.04,WNW,285,0.0,0.0,73,0.00,CLR,,0.00,0.0,WeatherDisplay:10.37,2013-09-04 02:01:00,
2013-09-03 21:06:00,65.4,56.9,30.04,WNW,285,2.3,2.3,74,0.00,CLR,,0.00,0.0,WeatherDisplay:10.37,2013-09-04 02:06:00,
2013-09-03 21:11:00,65.2,57.1,30.03,WNW,285,2.3,2.3,75,0.00,CLR,,0.00,0.0,WeatherDisplay:10.37,2013-09-04 02:11:00,
2013-09-03 21:16:00,65.0,56.9,30.03,WNW,285,1.1,1.1,75,0.00,CLR,,0.00,0.0,WeatherDisplay:10.37,2013-09-04 02:16:00,
2013-09-03 21:21:00,64.5,56.4,30.03,WNW,285,0.0,0.0,75,0.00,CLR,,0.00,0.0,WeatherDisplay:10.37,2013-09-04 02:21:00,
2013-09-03 21:26:00,63.6,55.9,30.03,WNW,285,0.0,0.0,76,0.00,CLR,,0.00,0.0,WeatherDisplay:10.37,2013-09-04 02:26:00,
2013-09-03 21:31:00,62.7,56.1,30.03,WNW,285,0.0,0.0,79,0.00,CLR,,0.00,0.0,WeatherDisplay:10.37,2013-09-04 02:31:00,
2013-09-03 21:37:00,61.5,55.3,30.03,WNW,285,0.0,0.0,80,0.00,CLR,,0.00,0.0,WeatherDisplay:10.37,2013-09-04 02:37:00,
2013-09-03 21:42:00,60.6,55.1,30.03,WNW,285,0.0,0.0,82,0.00,CLR,,0.00,0.0,WeatherDisplay:10.37,2013-09-04 02:42:00,
2013-09-03 21:47:00,59.7,54.5,30.03,WNW,285,0.0,0.0,83,0.00,CLR,,0.00,0.0,WeatherDisplay:10.37,2013-09-04 02:47:00,
2013-09-03 21:52:00,59.1,54.3,30.03,WNW,285,0.0,0.0,84,0.00,CLR,,0.00,0.0,WeatherDisplay:10.37,2013-09-04 02:52:00,
2013-09-03 21:57:00,58.5,54.0,30.03,WNW,285,0.0,0.0,85,0.00,CLR,,0.00,0.0,WeatherDisplay:10.37,2013-09-04 02:57:00,
2013-09-03 22:02:00,58.0,53.8,30.03,WNW,285,0.0,0.0,86,0.00,CLR,,0.00,0.0,WeatherDisplay:10.37,2013-09-04 03:02:00,
2013-09-03 22:07:00,57.6,54.1,30.03,WNW,285,0.0,0.0,88,0.00,CLR,,0.00,0.0,WeatherDisplay:10.37,2013-09-04 03:07:00,
2013-09-03 22:12:00,57.3,53.8,30.03,WNW,285,0.0,0.0,88,0.00,CLR,,0.00,0.0,WeatherDisplay:10.37,2013-09-04 03:12:00,
2013-09-03 22:17:00,57.1,53.9,30.03,WNW,285,0.0,0.0,89,0.00,CLR,,0.00,0.0,WeatherDisplay:10.37,2013-09-04 03:17:00,
2013-09-03 22:22:00,56.7,53.5,30.03,WNW,285,0.0,0.0,89,0.00,CLR,,0.00,0.0,WeatherDisplay:10.37,2013-09-04 03:22:00,
2013-09-03 22:27:00,56.5,53.6,30.04,WNW,285,0.0,0.0,90,0.00,CLR,,0.00,0.0,WeatherDisplay:10.37,2013-09-04 03:27:00,
2013-09-03 22:32:00,56.2,53.3,30.04,WNW,285,0.0,0.0,90,0.00,CLR,,0.00,0.0,WeatherDisplay:10.37,2013-09-04 03:32:00,
2013-09-03 22:37:00,55.9,53.0,30.03,WNW,285,0.0,0.0,90,0.00,CLR,,0.00,0.0,WeatherDisplay:10.37,2013-09-04 03:37:00,
2013-09-03 22:42:00,55.7,52.8,30.04,WNW,285,0.0,0.0,90,0.00,CLR,,0.00,0.0,WeatherDisplay:10.37,2013-09-04 03:42:00,
2013-09-03 22:47:00,55.3,52.7,30.03,WNW,285,1.1,1.1,91,0.00,CLR,,0.00,0.0,WeatherDisplay:10.37,2013-09-04 03:47:00,
2013-09-03 22:52:00,55.0,52.4,30.04,WNW,285,0.0,0.0,91,0.00,CLR,,0.00,0.0,WeatherDisplay:10.37,2013-09-04 03:52:00,
2013-09-03 22:57:00,54.9,52.6,30.04,WNW,285,0.0,0.0,92,0.00,CLR,,0.00,0.0,WeatherDisplay:10.37,2013-09-04 03:57:00,
2013-09-03 23:01:00,55.0,53.0,30.03,WNW,285,0.0,0.0,93,0.00,CLR,,0.00,0.0,WeatherDisplay:10.37,2013-09-04 04:01:00,
2013-09-03 23:06:00,55.0,52.7,30.04,WNW,285,0.0,0.0,92,0.00,CLR,,0.00,0.0,WeatherDisplay:10.37,2013-09-04 04:06:00,
2013-09-03 23:11:00,54.6,52.3,30.04,WNW,285,0.0,0.0,92,0.00,CLR,,0.00,0.0,WeatherDisplay:10.37,2013-09-04 04:11:00,
2013-09-03 23:16:00,54.4,52.1,30.04,WNW,285,0.0,0.0,92,0.00,CLR,,0.00,0.0,WeatherDisplay:10.37,2013-09-04 04:16:00,
2013-09-03 23:21:00,54.3,52.3,30.04,WNW,285,0.0,0.0,93,0.00,CLR,,0.00,0.0,WeatherDisplay:10.37,2013-09-04 04:21:00,
2013-09-03 23:27:00,54.2,52.2,30.04,WNW,285,0.0,0.0,93,0.00,CLR,,0.00,0.0,WeatherDisplay:10.37,2013-09-04 04:27:00,
2013-09-03 23:32:00,54.3,52.3,30.04,WNW,285,0.0,0.0,93,0.00,SCT,,0.00,0.0,WeatherDisplay:10.37,2013-09-04 04:32:00,
2013-09-03 23:37:00,54.2,52.5,30.04,WNW,285,0.0,0.0,94,0.00,SCT,,0.00,0.0,WeatherDisplay:10.37,2013-09-04 04:37:00,
2013-09-03 23:42:00,54.1,52.4,30.04,WNW,285,0.0,0.0,94,0.00,SCT,,0.00,0.0,WeatherDisplay:10.37,2013-09-04 04:42:00,
2013-09-03 23:47:00,54.1,52.4,30.04,WNW,285,0.0,0.0,94,0.00,SCT,,0.00,0.0,WeatherDisplay:10.37,2013-09-04 04:47:00,
2013-09-03 23:52:00,54.1,52.4,30.04,WNW,285,0.0,0.0,94,0.00,SCT,,0.00,0.0,WeatherDisplay:10.37,2013-09-04 04:52:00,
2013-09-03 23:57:00,54.1,52.4,30.04,WNW,285,0.0,0.0,94,0.00,SCT,,0.00,0.0,WeatherDisplay:10.37,2013-09-04 04:57:00,